Location: Unspecified
(12.2330°N, 0.0000°E)
Time: 19:56:53
(UTC+00:00)

ISS - Visible Passes

Search period start: 23 April 2019 00:00
Search period end: 03 May 2019 00:00
Orbit: 408 x 410 km, 51.6° (Epoch: 24 April)

Date Brightness Start Highest point End Pass type
(mag) Time Alt. Az. Time Alt. Az. Time Alt. Az.
23 Apr -1.9 04:19:50 21° SSE 04:20:56 26° SE 04:23:45 10° ENE visible
24 Apr -2.4 05:04:36 15° W 05:06:34 24° NW 05:09:18 10° N visible
25 Apr -3.2 04:16:26 48° N 04:16:26 48° N 04:19:01 10° NNE visible
27 Apr -1.0 04:12:31 11° NNW 04:12:31 11° NNW 04:12:44 10° N visible
